Norfolk, NE

2:40 PM CDT on July 25, 2017 (GMT -0500)
Stefan Memorial

Weather History for KOFK - January, 2015

Change the Weather History Date:

Thursday, January 22, 2015

  Actual Average Record
Temperature  
Mean Temperature 35 °F 23 °F  
Max Temperature 42 °F 33 °F 64 °F (1989)
Min Temperature 27 °F 12 °F -23 °F (1966)
Degree Days  
Heating Degree Days 30 42  
Month to date heating degree days 958 943  
Since 1 July heating degree days 3587 3649  
Cooling Degree Days 0 0  
Month to date cooling degree days 0 0  
Year to date cooling degree days 0 0  
Moisture  
Dew Point 23 °F    
Average Humidity 69    
Maximum Humidity 92    
Minimum Humidity 45    
Precipitation  
Precipitation 0.00 in 0.02 in 1.30 in (1982)
Month to date precipitation 0.25 0.41  
Year to date precipitation 0.25 0.41  
Snow  
Snow 0.00 in 0.30 in - ()
Month to date snowfall 3.7 4.4  
Since 1 July snowfall 13.3 15.3  
Snow Depth 0.00 in    
Sea Level Pressure  
Sea Level Pressure 30.39 in    
Wind  
Wind Speed 9 mph (SSW)    
Max Wind Speed 18 mph    
Max Gust Speed 22 mph    
Visibility 10 miles    
Events      
T = Trace of Precipitation, MM = Missing Value Source: NWS Daily Summary

Daily Weather History Graph

Daily Weather History Graph

Search for Another Location

Airport or City:

Trip Planner

Search our weather history database for the weather conditions in past years. The results will help you decide how hot, cold, wet, or windy it might be!

Date:

Astronomy

Jan. 22, 2015 Rise Set
Actual Time 7:51 AM CST 5:31 PM CST
Civil Twilight 7:20 AM CST 6:02 PM CST
Nautical Twilight 6:46 AM CST 6:36 PM CST
Astronomical Twilight 6:13 AM CST 7:09 PM CST
Moon 9:01 AM CST (1/22) 8:36 PM CST (1/22)
Length of Visible Light 10h 41m
Length of Day
9h 40m
Waxing Crescent, 7% of the Moon is Illuminated
Jan 22
Waxing Crescent
Jan 26
First Quarter
Feb 3
Full
Feb 11
Last Quarter
Feb 18
New

Hourly Weather History & Observations

Time (CST) Temp. Windchill Dew Point Humidity Pressure Visibility Wind Dir Wind Speed Gust Speed Precip Events Conditions
12:28 AM 30.0 °F 22.4 °F 26.1 °F 85% 30.36 in 10.0 mi NNW 8.1 mph - N/A   Overcast
12:56 AM 30.0 °F 22.4 °F 26.1 °F 85% 30.41 in 10.0 mi NNW 8.1 mph - N/A   Overcast
1:56 AM 28.9 °F 22.8 °F 25.0 °F 85% 30.43 in 10.0 mi North 5.8 mph - N/A   Overcast
2:56 AM 28.0 °F 20.8 °F 24.1 °F 85% 30.44 in 10.0 mi NNW 6.9 mph - N/A   Overcast
3:20 AM 28.0 °F 21.7 °F 24.1 °F 85% 30.39 in 10.0 mi North 5.8 mph - N/A   Overcast
3:56 AM 27.0 °F 23.0 °F 24.1 °F 89% 30.45 in 10.0 mi North 3.5 mph - N/A   Overcast
4:56 AM 28.0 °F - 23.0 °F 81% 30.45 in 10.0 mi Calm Calm - N/A   Overcast
5:19 AM 28.0 °F - 24.1 °F 85% 30.39 in 10.0 mi Calm Calm - N/A   Overcast
5:56 AM 27.0 °F - 24.1 °F 89% 30.45 in 10.0 mi Calm Calm - N/A   Overcast
6:56 AM 27.0 °F 21.6 °F 25.0 °F 92% 30.48 in 10.0 mi South 4.6 mph - N/A   Overcast
7:56 AM 28.0 °F 22.8 °F 24.1 °F 85% 30.50 in 10.0 mi South 4.6 mph - N/A   Overcast
8:56 AM 28.0 °F 20.0 °F 24.1 °F 85% 30.51 in 10.0 mi South 8.1 mph - N/A   Overcast
9:56 AM 30.0 °F 21.1 °F 25.0 °F 82% 30.50 in 10.0 mi SSW 10.4 mph - N/A   Overcast
10:23 AM 32.0 °F 24.2 °F 26.1 °F 79% 30.44 in 10.0 mi SW 9.2 mph - N/A   Scattered Clouds
10:56 AM 34.0 °F 27.2 °F 24.1 °F 67% 30.48 in 10.0 mi SW 8.1 mph - N/A   Partly Cloudy
11:10 AM 34.0 °F 25.0 °F 24.1 °F 67% 30.42 in 10.0 mi SW 12.7 mph - N/A   Mostly Cloudy
11:39 AM 35.1 °F 26.4 °F 23.0 °F 61% 30.40 in 10.0 mi SW 12.7 mph - N/A   Scattered Clouds
11:56 AM 36.0 °F 27.5 °F 23.0 °F 59% 30.44 in 10.0 mi SSW 12.7 mph - N/A   Clear
12:56 PM 37.9 °F 30.9 °F 21.9 °F 53% 30.40 in 10.0 mi SW 10.4 mph 18.4 mph N/A   Clear
1:56 PM 39.9 °F 33.9 °F 21.9 °F 49% 30.38 in 10.0 mi SW 9.2 mph - N/A   Clear
2:56 PM 41.0 °F 34.3 °F 21.9 °F 47% 30.36 in 10.0 mi SSW 11.5 mph - N/A   Clear
3:56 PM 41.0 °F 33.9 °F 21.9 °F 47% 30.35 in 10.0 mi SSW 12.7 mph - N/A   Clear
4:56 PM 39.0 °F 32.8 °F 23.0 °F 53% 30.32 in 10.0 mi South 9.2 mph - N/A   Clear
5:56 PM 33.1 °F 26.1 °F 21.9 °F 64% 30.32 in 10.0 mi South 8.1 mph - N/A   Clear
6:56 PM 33.1 °F 25.5 °F 21.9 °F 64% 30.32 in 10.0 mi South 9.2 mph - N/A   Clear
7:56 PM 33.1 °F 24.9 °F 21.9 °F 64% 30.31 in 10.0 mi South 10.4 mph - N/A   Clear
8:56 PM 32.0 °F 22.5 °F 21.9 °F 66% 30.30 in 10.0 mi South 12.7 mph - N/A   Clear
9:56 PM 30.9 °F 19.8 °F 21.9 °F 69% 30.28 in 10.0 mi South 16.1 mph - N/A   Clear
10:56 PM 30.0 °F 18.7 °F 21.0 °F 69% 30.27 in 10.0 mi South 16.1 mph - N/A   Clear
11:56 PM 28.9 °F 17.7 °F 21.0 °F 72% 30.27 in 10.0 mi South 15.0 mph - N/A   Clear